Location: Unspecified
(51.0000°N, 12.0000°E)
Time: 10:33:17
(UTC+01:00)

N. Korean satellite - Pass Details

Date: 23 October 2019
Orbit: 456 x 506 km, 97.2° (Epoch: 19 November)

Event Time Altitude Azimuth Distance (km) Brightness Sun altitude
Rises 07:02:45 0° 16° (NNE) 2,565 10.3 -7.8°
Reaches altitude 10° 07:04:50 10° 20° (NNE) 1,688 9.5 -7.4°
Maximum altitude 07:08:26 60° 101° (E) 571 7.3 -6.9°
Drops below altitude 10° 07:12:03 10° 182° (S) 1,698 9.4 -6.3°
Sets 07:14:09 0° 186° (S) 2,583 10.3 -6.0°
